User: anonymous   Login
Location: Warszawa
(52.2500°N, 21.0000°E)
Time: 04:10:15
(UTC+01:00)
Language:

Tiangong - Orbit

View from above orbital plane
View from above orbital plane
View from above satellite
View from above satellite

Ground track
Ground track

The orbit data is extracted from the following two-line orbital elements,

1 48274U 21035A   24057.44956900  .00040967  00000-0  44849-3 0  9999
2 48274  41.4686  45.9022 0007669  34.7834 325.3506 15.62474392161606
Epoch (UTC): 26 February 2024 10:47:22
Eccentricity: 0.0007669
inclination: 41.4686°
perigee height: 375 km
apogee height: 386 km
right ascension of ascending node: 45.9022°
argument of perigee: 34.7834°
revolutions per day: 15.62474392
mean anomaly at epoch: 325.3506°
orbit number at epoch: 16160

The dashed part of the orbit path shows where the satellite is in the earth's shadow,  

DLR